2023/01/27 00:00:00,35.2,-1.9
2023/01/27 00:10:00,35.1,-2.1
2023/01/27 00:20:00,35.1,-2.0
2023/01/27 00:30:00,35.0,-2.0
2023/01/27 00:40:00,34.9,-2.1
2023/01/27 00:50:00,35.0,-2.1
2023/01/27 01:00:00,35.0,-1.9
2023/01/27 01:10:00,34.9,-2.0
2023/01/27 01:20:00,34.9,-1.9
2023/01/27 01:30:00,34.9,-2.0
2023/01/27 01:40:00,34.8,-2.1
2023/01/27 01:50:00,34.6,-1.9
2023/01/27 02:00:00,34.6,-2.2
2023/01/27 02:10:00,34.5,-2.4
2023/01/27 02:20:00,34.5,-2.1
2023/01/27 02:30:00,34.3,-2.3
2023/01/27 02:40:00,34.3,-2.1
2023/01/27 02:50:00,34.3,-2.0
2023/01/27 03:00:00,34.3,-2.3
2023/01/27 03:10:00,34.3,-2.4
2023/01/27 03:20:00,34.2,-2.2
2023/01/27 03:30:00,34.1,-1.9
2023/01/27 03:40:00,34.0,-2.5
2023/01/27 03:50:00,33.9,-2.3
2023/01/27 04:00:00,33.9,-2.2
2023/01/27 04:10:00,33.8,-2.2
2023/01/27 04:20:00,33.9,-2.1
2023/01/27 04:30:00,33.9,-2.3
2023/01/27 04:40:00,33.9,-2.2
2023/01/27 04:50:00,33.9,-2.1
2023/01/27 05:00:00,33.9,-2.4
2023/01/27 05:10:00,34.1,-2.1
2023/01/27 05:20:00,34.3,-1.9
2023/01/27 05:30:00,34.4,-2.0
2023/01/27 05:40:00,34.8,-1.8
2023/01/27 05:50:00,34.9,-1.9
2023/01/27 06:00:00,35.0,-1.7
2023/01/27 06:10:00,34.9,-2.0
2023/01/27 06:20:00,34.8,-1.6
2023/01/27 06:30:00,34.8,-1.8
2023/01/27 06:40:00,34.9,-1.7
2023/01/27 06:50:00,34.9,-1.8
2023/01/27 07:00:00,34.9,-1.8
2023/01/27 07:10:00,35.0,-1.6
2023/01/27 07:20:00,35.1,-1.7
2023/01/27 07:30:00,35.2,-1.5
2023/01/27 07:40:00,35.3,-1.4
2023/01/27 07:50:00,35.2,-1.2
2023/01/27 08:00:00,35.4,-1.1
2023/01/27 08:10:00,36.2,-0.7
2023/01/27 08:20:00,35.9,-0.7
2023/01/27 08:30:00,35.9,-0.5
2023/01/27 08:40:00,36.1,-0.5
2023/01/27 08:50:00,36.1,-0.1
2023/01/27 09:00:00,36.3, 0.2
2023/01/27 09:10:00,36.3, 0.6
2023/01/27 09:20:00,36.3, 1.8
2023/01/27 09:30:00,36.4, 1.2
2023/01/27 09:40:00,36.4, 1.7
2023/01/27 09:50:00,36.3, 1.8
2023/01/27 10:00:00,36.6, 1.4
2023/01/27 10:10:00,36.7, 1.6
2023/01/27 10:20:00,37.2, 2.1
2023/01/27 10:30:00,37.3, 1.6
2023/01/27 10:40:00,37.2, 2.4
2023/01/27 10:50:00,37.0, 4.1
2023/01/27 11:00:00,36.5, 4.6
2023/01/27 11:10:00,36.0, 4.3
2023/01/27 11:20:00,35.7, 4.5
2023/01/27 11:30:00,35.5, 6.6
2023/01/27 11:40:00,35.3, 7.9
2023/01/27 11:50:00,34.8, 8.7
2023/01/27 12:00:00,33.6, 6.5
2023/01/27 12:10:00,33.4, 4.7
2023/01/27 12:20:00,33.3, 3.7
2023/01/27 12:30:00,33.5, 3.1
2023/01/27 12:40:00,33.8, 2.3
2023/01/27 12:50:00,33.8, 2.2
2023/01/27 13:00:00,33.9, 1.6
2023/01/27 13:10:00,34.1, 2.2
2023/01/27 13:20:00,34.2, 2.4
2023/01/27 13:30:00,34.0, 2.8
2023/01/27 13:40:00,33.8, 2.5
2023/01/27 13:50:00,33.6, 1.5
2023/01/27 14:00:00,34.1, 1.0
2023/01/27 14:10:00,34.7, 0.5
2023/01/27 14:20:00,35.4, 1.4
2023/01/27 14:30:00,35.8, 1.1
2023/01/27 14:40:00,35.9, 1.3
2023/01/27 14:50:00,36.1, 1.9
2023/01/27 15:00:00,35.7, 1.2
2023/01/27 15:10:00,36.1, 0.0
2023/01/27 15:20:00,36.8, 0.3
2023/01/27 15:30:00,37.6, 0.6
2023/01/27 15:40:00,37.7, 0.0
2023/01/27 15:50:00,38.1, 0.3
2023/01/27 16:00:00,38.4, 0.0
2023/01/27 16:10:00,38.4,-0.4
2023/01/27 16:20:00,38.4,-0.6
2023/01/27 16:30:00,39.0,-0.6
2023/01/27 16:40:00,39.6,-0.6
2023/01/27 16:50:00,40.3,-0.9
2023/01/27 17:00:00,40.9,-0.9
2023/01/27 17:10:00,41.1,-0.8
2023/01/27 17:20:00,41.3,-1.0
2023/01/27 17:30:00,41.3,-1.2
2023/01/27 17:40:00,41.2,-1.3
2023/01/27 17:50:00,41.2,-1.5
2023/01/27 18:00:00,41.2,-1.7
2023/01/27 18:10:00,41.2,-1.8
2023/01/27 18:20:00,41.0,-1.9
2023/01/27 18:30:00,40.7,-1.9
2023/01/27 18:40:00,41.0,-2.0
2023/01/27 18:50:00,41.2,-2.7
2023/01/27 19:00:00,41.1,-2.9
2023/01/27 19:10:00,41.2,-2.6
2023/01/27 19:20:00,41.2,-2.7
2023/01/27 19:30:00,41.1,-3.3
2023/01/27 19:40:00,41.4,-2.5
2023/01/27 19:50:00,42.0,-2.6
2023/01/27 20:00:00,42.0,-2.3
2023/01/27 20:10:00,42.4,-2.2
2023/01/27 20:20:00,42.4,-2.2
2023/01/27 20:30:00,42.1,-2.1
2023/01/27 20:40:00,42.2,-2.2
2023/01/27 20:50:00,42.2,-2.4
2023/01/27 21:00:00,42.1,-2.1
2023/01/27 21:10:00,42.1,-2.5
2023/01/27 21:20:00,42.1,-2.8
2023/01/27 21:30:00,42.1,-3.1
2023/01/27 21:40:00,41.9,-3.6
2023/01/27 21:50:00,41.7,-3.0
2023/01/27 22:00:00,41.7,-2.9
2023/01/27 22:10:00,41.9,-3.1
2023/01/27 22:20:00,41.8,-2.9
2023/01/27 22:30:00,41.7,-3.5
2023/01/27 22:40:00,41.6,-3.7
2023/01/27 22:50:00,41.6,-4.6
2023/01/27 23:00:00,41.6,-4.8
2023/01/27 23:10:00,41.7,-5.1
2023/01/27 23:20:00,41.5,-5.7
2023/01/27 23:30:00,41.4,-6.1
2023/01/27 23:40:00,41.2,-6.6
2023/01/27 23:50:00,41.2,-6.3
